Regional Weather Roundup
Issued by NWS

Home | Current Version | Previous Version | Graphics & Text | Print | Product List | Glossary On
Versions: 1 2 3 4 5 6 7 8 9 10 11 12 13 14 15 16 17 18 19 20 21 22 23 24 25 26 27 28 29 30 31 32 33 34 35 36 37 38 39 40 41 42 43 44
000
ASUS43 KMKX 230321
RWRWI

WISCONSIN REGIONAL WEATHER ROUNDUP
NATIONAL WEATHER SERVICE MILWAUKEE/SULLIVAN WI
1000 PM CDT MON AUG 22 2016

NOTE: "FAIR" INDICATES FEW OR NO CLOUDS BELOW 12,000 FEET WITH NO
SIGNIFICANT WEATHER AND/OR OBSTRUCTIONS TO VISIBILITY.

WIZ001-002-006>008-014>016-023>028-230400-
NORTHWEST WISCONSIN

CITY           SKY/WX    TMP DP  RH WIND       PRES   REMARKS
SUPERIOR ARPT  CLEAR     69  63  79 SW6       29.86R
ASHLAND        CLEAR     70  61  73 SW7       29.91R
HAYWARD        CLEAR     71  60  68 S15       29.94R
SIREN          CLEAR     73  59  61 S8        29.91R
CUMBERLAND     CLEAR     68  57  68 S10       29.95R
RICE LAKE      CLEAR     70  59  69 S12       29.97R
CHETEK         NOT AVBL
LADYSMITH      PTCLDY    68  61  76 S8        30.00R
EAU CLAIRE     CLEAR     72  61  68 S9        29.98R
MENOMONIE      CLEAR     72  60  65 S15       29.97S
NEW RICHMOND   CLEAR     72  58  62 S17G23    29.94S
OSCEOLA        CLEAR     72  60  65 S12G20    29.95R
$$

WIZ003>005-009-010-017-018-230400-
NORTH CENTRAL WISCONSIN

CITY           SKY/WX    TMP DP  RH WIND       PRES   REMARKS
MANITOWISH WTR NOT AVBL
ARBOR VITAE    PTCLDY    67  60  79 S8G16     30.00S
WOODRUFF       PTCLDY    67  60  79 S8G16     30.00S
RHINELANDER    PTCLDY    67  61  81 SW12G20   30.02R
EAGLE RIVER    PTCLDY    65  57  77 S5        30.01R
LAND O LAKES   CLOUDY    64  60  87 S5        30.01R
PHILLIPS       PTCLDY    67  61  81 S9        29.99R
TOMAHAWK       PTCLDY    65  59  79 CALM      30.02R
MEDFORD        CLEAR     65  62  87 S10G16    30.02S
MERRILL        CLEAR     68  61  78 S7        30.04R
$$

WIZ029-030-035-036-043>047-230400-
CENTRAL WISCONSIN

CITY           SKY/WX    TMP DP  RH WIND       PRES   REMARKS
WAUSAU         CLEAR     69  59  70 S15       30.02R
MOSINEE        CLEAR     66  61  82 S12       30.05R
MARSHFIELD     CLEAR     68  59  73 S13       30.03S
STEVENS POINT  PTCLDY    66  58  74 S10G16    30.06S
WAUPACA        CLEAR     67  59  74 S6        30.06S
WAUTOMA        CLEAR     68  59  73 S7        30.08R
WISC RAPIDS    CLEAR     68  61  78 S9        30.07R
CAMP DOUGLAS   PTCLDY    68  61  77 S6        30.06R
$$

WIZ011>013-019>022-031-037>040-048>050-230400-
NORTHEAST WISCONSIN

CITY           SKY/WX    TMP DP  RH WIND       PRES   REMARKS
ANTIGO         CLEAR     63  58  84 S8        30.05S
SHAWANO        CLEAR     69  58  68 S5        30.05S
OCONTO         NOT AVBL
STURGEON BAY   MOCLDY    67  58  72 S6        30.10R
GREEN BAY      CLEAR     65  60  84 S6        30.07R
MANITOWOC      CLEAR     66  57  72 S7        30.10R
APPLETON       MOCLDY    68  54  60 S12G18    30.06R
CLINTONVILLE   CLEAR     64  55  72 S7        30.06R
OSHKOSH        CLEAR     67  57  70 S10       30.08S
$$

WIZ032>034-041-042-053>061-230400-
SOUTHWEST WISCONSIN

CITY           SKY/WX    TMP DP  RH WIND       PRES   REMARKS
LA CROSSE      CLEAR     74  67  78 S13G20    30.03R
SPARTA         CLEAR     70  61  74 S8        30.05S
VIROQUA        CLEAR     67  61  80 S9        30.08S
BOSCOBEL       CLEAR     71  61  70 S6        30.08R
PRAIRIE DU CHI CLEAR     71  59  67 SE6       30.07S
PLATTEVILLE    CLEAR     65  63  91 S8        30.12S
$$

WIZ056-057-062-063-064-067-068-230400-
SOUTH CENTRAL WISCONSIN

CITY           SKY/WX    TMP DP  RH WIND       PRES   REMARKS
REEDSBURG      NOT AVBL
BARABOO/DELLS  CLEAR     67  57  70 S13       30.09S
LONE ROCK      CLEAR     64  59  83 CALM      30.10R
MINERAL POINT  CLEAR     66  63  88 S7        30.12S
MADISON        CLEAR     69  58  67 S9        30.11R
MIDDLETON      CLEAR     69  58  69 S7        30.12S
WATERTOWN      CLEAR     64  59  83 S7        30.12S
MONROE         CLEAR     64  57  77 S8        30.13S
JANESVILLE     NOT AVBL
$$

WIZ051-052-058>065-066-070>072-230400-
SOUTHEAST WISCONSIN

CITY           SKY/WX    TMP DP  RH WIND       PRES   REMARKS
MILWAUKEE      CLEAR     71  54  54 SW12      30.14R
WAUKESHA       CLEAR     64  54  68 S3        30.15R
MILWAUKEE/TIMM CLEAR     68  52  56 S8        30.14R
RACINE         CLEAR     66  55  67 SW6       30.16R
BURLINGTON     CLEAR     60  55  82 SW3       30.15R
KENOSHA        CLEAR     67  56  67 SW7       30.15R
FOND DU LAC    CLEAR     68  56  65 S9        30.10R
SHEBOYGAN      CLEAR     63  57  81 S8        30.11R
WEST BEND      CLEAR     64  55  72 S5        30.13R
JUNEAU         CLEAR     64  57  77 S8        30.13S
$$

LSZ147-162-230400-
LAKE SUPERIOR

STATION/POSITION TIME  TEMP    WIND        PRES    WAVE
                       AIR SEA DIR/SP/G            HT/PER
                 (UTC) (F)     (DEG/KT/KT) (MB)    (FT/S)
W MID LAKE BUOY  0250   69 66  170/ 16/ 17 1011.3R   2/ 4
DEVILS ISLAND    0300   75     190/ 10/ 13 1011.6R
PORT WING        0240   74     190/  9/ 12 1011.5R
SAXON HARBOR     0200   73     190/  3/  8 1012.2R
$$

LMZ867-665-643>646-230400-
LAKE MICHIGAN

STATION/POSITION TIME  TEMP    WIND        PRES    WAVE
                       AIR SEA DIR/SP/G            HT/PER
                 (UTC) (F)     (DEG/KT/KT) (MB)    (FT/S)
CHAMBERS ISLAND  0200   68     150/  6/ 11 1018.3R
S GREEN BAY BUOY 0300   72 74  180/ 17/ 23 1017.3R
N MID LAKE BUOY  0250   70 71  210/ 21/ 27 1018.5R   6/ 6
NORTHPORT PIER   0300   66     210/  3/ 11 1019.6R
SISTER BAY       0222   64     170/  9/ 10   N/A
KEWAUNEE LAKESHO 0200   68                 1017.9R
SHEBOYGAN LAKESH 0300   68     200/ 12/ 13 1019.6R
PORT WASHINGTON  0200   66      CALM  /  3 1020.3
ATWATER BUOY     0300   71 64  220/ 10/ 14   N/A
MILWAUKEE LAKESH 0210   70     180/  9/  9   N/A
S MID LAKE BUOY  0250   74 74  180/ 17/ 21 1020.0S   3/ 4
KENOSHA   LAKESH 0300   71     230/  7/ 10 1020.3R
$$

TC  - TEMPERATURE IN CELSIUS
VSB - VISIBILITY IN STATUTE MILES
WCI - WIND CHILL INDEX
HX  - HEAT INDEX





USA.gov is the U.S. government's official web portal to all federal, state and local government web resources and services.